[[{"header":{"parameterUnit":"m.s-1","parameterCategory":1,"la1":30.2991,"la2":30.254,"lo1":-89.0895,"lo2":-89.0444,"dy":0.0017,"dx":0.0017,"nx":28,"ny":28,"refTime":"2025-07-07T21:00:00:Z","depth":0,"parameterNumber":2,"parameterNumberName":"U-component_of_WINDS"},"data":[0,0,0,0,0,0,0,0,0,0,0,0,0,0,0,0,0,0,0,0,0,0,0,0,0,0,0,0,0,0,0,0,0,0,0,0,0,0,0,0,0,0,0,0,0,0,0,0,0,0,0,0,0,0,0,0,0,0,4.7083,4.7084,0,4.7199,4.72,4.7201,4.7097,4.7093,4.7089,4.7085,4.7203,4.721,4.7217,0,0,0,0,0,0,0,0,0,0,0,0,0,4.6771,4.6777,4.7083,4.7084,4.7086,4.7198,4.72,4.7201,4.7098,4.7093,4.7088,4.7083,4.7201,4.7209,4.7218,0,0,0,0,0,0,0,0,0,0,0,0,0,4.6898,4.6779,4.7083,4.7048,4.7046,4.7198,4.72,4.7202,4.7099,4.7093,4.7086,4.708,4.7198,4.7208,4.7219,4.7411,0,0,4.7251,4.7256,0,0,0,0,0,0,0,0,4.6891,4.691,4.7051,4.705,4.7048,4.7127,4.7133,4.7272,4.7101,4.7079,4.7085,4.7077,4.7183,4.7194,4.723,4.7417,4.7422,4.7252,4.7259,4.7263,4.7266,0,0,0,0,0,0,0,4.6883,4.6904,4.7129,4.7054,4.7052,4.7026,4.7037,4.7159,4.7165,4.708,4.7073,4.7088,4.7181,4.722,4.7232,4.7424,4.7252,4.7261,4.7268,4.7272,4.7771,4.7778,0,0,0,0,0,0,4.6878,4.6898,4.7125,4.7132,4.6953,4.7036,4.7049,4.7108,4.7163,4.7166,4.7093,4.7083,4.7205,4.722,4.7236,4.7462,4.7263,4.7273,4.7279,4.7764,4.7773,4.778,0,0,0,0,0,0,4.6871,4.6899,4.712,4.7013,4.7039,4.7049,4.7116,4.7114,4.7153,4.7173,4.7174,4.7132,4.72,4.7221,4.7368,4.7465,4.7278,4.7287,4.7756,4.7767,4.7776,4.7919,0,0,0,0,0,0,4.6863,4.6897,4.6971,4.7015,4.7045,4.7251,4.7122,4.7121,4.7171,4.7159,4.721,4.7212,4.7197,4.7352,4.7378,4.7476,4.7296,4.7747,4.7761,4.7773,4.7905,4.7932,4.7956,0,0,0,0,0,4.6852,4.7007,4.6975,4.7003,4.7138,4.7257,4.7274,4.7253,4.718,4.7253,4.7266,4.7211,4.7451,4.7368,4.7397,4.7499,4.7741,4.7757,4.7772,4.7894,4.7927,4.7955,0,0,0,0,0,0,4.6974,4.7012,4.6977,4.7152,4.7202,4.7239,4.7332,4.729,4.7362,4.7347,4.7318,4.7331,4.7485,4.7507,4.7415,4.7687,4.7584,4.7606,4.7667,4.7698,4.7723,4.7714,4.7305,0,0,0,0,0,4.7021,4.7115,4.7144,4.7294,4.7321,4.7323,4.7374,4.7353,4.7404,4.7425,4.7449,4.75,4.7586,4.7644,4.7725,4.7908,4.7917,4.7993,4.8018,4.8039,4.8057,4.8153,4.8186,4.7831,4.7831,4.7831,0,0,4.7119,4.7152,4.7213,4.732,4.7356,4.7453,4.7341,4.7449,4.752,4.7441,4.758,4.76,4.7655,4.7821,4.7895,4.7844,4.8157,4.8059,4.8075,4.8082,4.8172,4.8206,4.8236,4.7841,4.784,4.7838,0,0,4.7347,4.7383,4.7511,4.755,4.7606,4.7606,4.7637,4.7681,4.769,4.783,4.7772,4.7856,4.8007,4.8047,4.8088,4.833,4.8281,4.8358,4.8489,4.8583,4.8611,4.8635,4.8719,4.875,4.8376,4.8377,4.8377,0,4.7462,4.7607,4.7582,4.7694,4.7741,4.7674,4.7803,4.7842,4.7922,4.7956,4.7898,4.8083,4.8116,4.8289,4.8348,4.8384,4.8416,4.8351,4.8609,4.8633,4.8656,4.8735,4.8767,4.8386,4.8385,4.8384,4.8383,0,4.7743,4.7845,4.7941,4.802,4.8078,4.8198,4.8191,4.8253,4.8228,4.8233,4.8375,4.8412,4.8498,4.8538,4.8515,4.8707,4.8673,4.8613,4.8508,4.8699,4.8773,4.8803,4.8398,4.8395,4.8392,4.839,0,0,4.8051,4.8114,4.8149,4.8183,4.824,4.8317,4.8434,4.8517,4.857,4.8628,4.8723,4.8851,4.8795,4.8841,4.8822,4.8905,4.9091,4.8834,4.8834,4.8878,4.9302,4.9345,4.9381,4.9059,4.9065,4.907,4.9296,0,4.8278,4.848,4.8461,4.8652,4.8744,4.8681,4.8782,4.8827,4.8835,4.8914,4.8922,4.9013,4.8933,4.896,4.9039,4.9051,4.9175,4.9035,4.9146,4.915,4.9131,4.942,4.9466,4.9678,4.9325,4.933,4.9334,0,4.8571,4.8638,4.8838,4.8879,4.8917,4.9008,4.9082,4.9159,4.9208,4.9208,4.9259,4.9225,4.934,4.9235,4.9393,4.9298,4.9342,4.9355,4.9362,4.937,4.9252,4.9432,4.9745,4.9776,4.938,4.9376,4.9373,0,4.8771,4.8912,4.9049,4.9081,4.9133,4.9198,4.9223,4.9266,4.9317,4.9382,4.9414,4.9492,4.9535,4.9595,4.9582,4.9507,4.9742,4.9637,4.9744,4.9744,4.9794,4.9791,5.0116,4.9828,4.9827,4.9827,4.9826,0,4.9026,4.915,4.9139,4.9224,4.936,4.9337,4.9473,4.949,4.9529,4.9614,4.9565,4.9646,4.9626,4.9706,4.9697,4.9827,4.9847,4.9849,4.9845,4.9852,4.9851,4.9879,4.9863,4.9835,4.9833,4.9831,4.983,0,4.9272,4.927,4.9415,4.9453,4.9465,4.9564,4.9595,4.9674,4.9678,4.9786,4.981,4.9817,4.9908,4.9902,5.0006,5.0,5.0159,5.0139,5.0142,5.0137,5.0243,5.0233,5.0596,5.0641,5.0326,5.0329,5.0331,0,4.9434,4.9527,4.9575,4.9628,4.9657,4.9745,4.9796,4.9777,4.9832,4.9895,4.9966,5.0053,5.0121,5.027,5.0283,5.0362,5.0341,5.0463,5.0352,5.0356,5.0339,5.0333,5.0341,5.0484,5.0487,5.049,5.0493,0,4.9719,4.9713,4.9789,4.9866,4.9928,4.9987,5.0041,5.0088,5.0073,5.0138,5.0231,5.0284,5.0389,5.0475,5.0549,5.0573,5.0531,5.0528,5.0556,5.0563,5.056,5.056,5.0199,5.0519,5.0516,5.0514,5.0513,5.0512,4.9926,5.0005,5.0051,5.0137,5.0175,5.0226,5.0301,5.0314,5.0391,5.0475,5.0459,5.0563,5.0608,5.0703,5.0735,5.0815,5.0771,5.0813,5.0823,5.0833,5.0844,5.055,5.0829,5.0828,5.0827,5.0827,5.0826,0,5.0206,5.0232,5.0312,5.0388,5.0455,5.041,5.0466,5.0525,5.0617,5.0663,5.0731,5.0837,5.092,5.094,5.1019,5.1079,5.1061,5.11,5.1094,5.11,5.088,5.0846,5.1113,5.1113,5.1113,5.1113,5.1113,5.1113,5.036,5.0491,5.0491,5.064,5.0665,5.0766,5.0801,5.0848,5.0884,5.1004,5.1073,5.1085,5.112,5.1201,5.1275,5.1278,5.1309,5.1355,5.1351,5.1145,5.1116,5.1088,5.1056,5.1363,5.1363,5.1564,5.1566,5.1567]},{"header":{"parameterUnit":"m.s-1","parameterCategory":1,"la1":30.2991,"la2":30.254,"lo1":-89.0895,"lo2":-89.0444,"dy":0.0017,"dx":0.0017,"nx":28,"ny":28,"refTime":"2025-07-07T21:00:00:Z","depth":0,"parameterNumber":3,"parameterNumberName":"V-component_of_WINDS"},"data":[0,0,0,0,0,0,0,0,0,0,0,0,0,0,0,0,0,0,0,0,0,0,0,0,0,0,0,0,0,0,0,0,0,0,0,0,0,0,0,0,0,0,0,0,0,0,0,0,0,0,0,0,0,0,0,0,0,0,3.9669,3.967,0,3.9748,3.9749,3.975,3.9731,3.973,3.9728,3.9727,3.9805,3.9809,3.9812,0,0,0,0,0,0,0,0,0,0,0,0,0,3.9496,3.9499,3.9669,3.967,3.9671,3.9748,3.9749,3.975,3.9732,3.973,3.9728,3.9726,3.9804,3.9808,3.9813,0,0,0,0,0,0,0,0,0,0,0,0,0,3.9573,3.95,3.9668,3.9671,3.9672,3.9748,3.9749,3.9751,3.9732,3.973,3.9727,3.9725,3.9803,3.9808,3.9813,3.9891,0,0,3.9829,3.9831,0,0,0,0,0,0,0,0,3.9568,3.9579,3.9669,3.9671,3.9672,3.9728,3.9717,3.9798,3.9733,3.9709,3.9727,3.9724,3.9781,3.9788,3.9808,3.9895,3.9898,3.983,3.9833,3.9835,3.9837,0,0,0,0,0,0,0,3.9563,3.9575,3.97,3.9671,3.9672,3.9666,3.9675,3.9732,3.9757,3.9711,3.971,3.972,3.9781,3.9803,3.981,3.9899,3.9829,3.9834,3.9837,3.9839,4.0051,4.0053,0,0,0,0,0,0,3.9557,3.9571,3.9698,3.9702,3.9614,3.9671,3.9681,3.9712,3.9756,3.9761,3.9721,3.9718,3.9795,3.9803,3.9812,3.9904,3.9835,3.984,3.9843,4.0048,4.0051,4.0054,0,0,0,0,0,0,3.9553,3.9569,3.9694,3.9637,3.9652,3.9677,3.9712,3.9715,3.9736,3.9764,3.9768,3.9739,3.9794,3.9805,3.9871,3.9907,3.9842,3.9847,4.0046,4.0049,4.0053,4.009,0,0,0,0,0,0,3.9549,3.9567,3.9599,3.9637,3.9655,3.9754,3.9714,3.9718,3.9746,3.9743,3.9782,3.9786,3.9793,3.9863,3.9876,3.9913,3.9851,4.0042,4.0047,4.0052,4.0086,4.0095,4.0102,0,0,0,0,0,3.9542,3.9606,3.96,3.9616,3.9695,3.9756,3.9766,3.9773,3.9749,3.9779,3.9797,3.9785,3.9901,3.987,3.9885,3.9923,4.004,4.0046,4.0051,4.0082,4.0093,4.0102,0,0,0,0,0,0,3.957,3.9611,3.9605,3.9684,3.9716,3.9752,3.9791,3.9785,3.9824,3.9819,3.9825,3.9834,3.9901,3.9919,3.9884,4.0,3.9967,3.9976,3.9985,3.9996,4.0004,3.9997,3.9856,0,0,0,0,0,3.9585,3.9632,3.9665,3.9731,3.9748,3.9767,3.9794,3.9796,3.983,3.9843,3.9866,3.9898,3.9941,3.997,4.0012,4.0089,4.0095,4.0122,4.013,4.0137,4.0144,4.0183,4.0194,4.0072,4.0072,4.0072,0,0,3.9617,3.9645,3.9675,3.9737,3.9763,3.981,3.9779,3.983,3.9864,3.9851,3.9914,3.9932,3.9968,4.0039,4.0072,4.0056,4.0179,4.0144,4.0149,4.0152,4.019,4.0201,4.0211,4.0076,4.0075,4.0075,0,0,3.9698,3.9726,3.9782,3.9808,3.9848,3.986,3.9873,3.991,3.9921,3.9986,3.9976,4.0016,4.0091,4.0117,4.0139,4.0228,4.0218,4.0242,4.0284,4.0322,4.0332,4.034,4.0369,4.038,4.0249,4.0249,4.0249,0,3.9733,3.9804,3.9812,3.9864,3.989,3.9881,3.9937,3.9962,4.0012,4.003,4.0012,4.0105,4.0129,4.0204,4.0226,4.0246,4.0259,4.0237,4.033,4.0338,4.0346,4.0374,4.0386,4.0251,4.0251,4.0251,4.0251,0,3.9843,3.9892,3.9933,3.9982,4.0014,4.0067,4.0081,4.0112,4.0111,4.0124,4.0188,4.0216,4.0262,4.0281,4.0281,4.0356,4.0345,4.0329,4.0295,4.036,4.0386,4.0397,4.0255,4.0254,4.0253,4.0253,0,0,3.9944,3.9996,4.001,4.0031,4.0073,4.0111,4.0163,4.0209,4.0234,4.0269,4.0311,4.0374,4.0359,4.0385,4.0387,4.0421,4.0486,4.04,4.0401,4.0413,4.0567,4.0577,4.059,4.048,4.0482,4.0484,4.0563,0,4.0027,4.012,4.0127,4.021,4.0254,4.0245,4.029,4.032,4.0333,4.0371,4.0386,4.043,4.0407,4.0422,4.0456,4.0471,4.0517,4.0466,4.0517,4.0519,4.0506,4.0604,4.0616,4.0689,4.0574,4.0576,4.0577,0,4.0137,4.0175,4.0262,4.0296,4.0314,4.0355,4.0396,4.0434,4.0466,4.0473,4.0501,4.0499,4.055,4.0516,4.0585,4.055,4.0572,4.0582,4.0585,4.0589,4.055,4.0608,4.0713,4.0723,4.0594,4.0592,4.0591,0,4.0198,4.0271,4.0332,4.0351,4.0393,4.0421,4.0439,4.047,4.0496,4.0531,4.0548,4.0589,4.0611,4.0642,4.0649,4.0625,4.0717,4.0685,4.0723,4.0722,4.0741,4.074,4.0849,4.0759,4.0759,4.0758,4.0758,0,4.0289,4.0342,4.036,4.0398,4.0456,4.0463,4.052,4.0537,4.0564,4.0602,4.0598,4.0634,4.0643,4.068,4.0687,4.0741,4.0752,4.0757,4.0758,4.0757,4.0756,4.0769,4.0763,4.0761,4.0761,4.076,4.076,0,4.0367,4.0382,4.0447,4.0481,4.0491,4.0532,4.056,4.0594,4.0607,4.0656,4.0668,4.0687,4.073,4.0741,4.0794,4.0798,4.0861,4.0858,4.0851,4.085,4.0886,4.0881,4.1006,4.1022,4.0923,4.0924,4.0925,0,4.0423,4.0464,4.0502,4.0527,4.0547,4.0589,4.0616,4.0624,4.0652,4.069,4.072,4.0763,4.0798,4.0867,4.0885,4.0924,4.092,4.0961,4.0926,4.0922,4.0918,4.0914,4.0917,4.0967,4.0968,4.0969,4.097,0,4.052,4.0525,4.0564,4.0605,4.0637,4.0669,4.0701,4.0722,4.0734,4.0765,4.081,4.0837,4.0889,4.0931,4.097,4.0987,4.098,4.0981,4.0991,4.0989,4.0982,4.0984,4.0866,4.0978,4.0977,4.0976,4.0976,4.0976,4.0587,4.0622,4.0653,4.0696,4.072,4.0749,4.0783,4.0799,4.0837,4.0881,4.0884,4.0931,4.096,4.1012,4.1031,4.1068,4.1055,4.1071,4.1074,4.1077,4.1079,4.0978,4.1075,4.1075,4.1075,4.1074,4.1074,0,4.0681,4.0701,4.074,4.0784,4.0817,4.0809,4.0842,4.087,4.0912,4.0941,4.0975,4.1025,4.1065,4.1085,4.1125,4.1149,4.1147,4.1159,4.1156,4.116,4.1089,4.1075,4.1161,4.1161,4.1161,4.116,4.116,4.116,4.0734,4.0791,4.08,4.0868,4.0887,4.0934,4.0954,4.0979,4.1002,4.1058,4.1092,4.1105,4.1129,4.117,4.1206,4.1211,4.1224,4.1238,4.1241,4.1174,4.1165,4.1157,4.1143,4.1241,4.1241,4.1307,4.1308,4.1309]}]]